KB4KY Weather Reports


time (UTC)temp
C
wind
direction
speed
KPH
gust
KPH
rain 1hr
cm
rain 24hr
cm
rain mn
cm
humidity
%
barometer
mb
20260906003834 26 18 0.0 0.0 0.03 0.08 0.08 79 1009.9
20260906003336 26 18 0.0 0.0 0.03 0.08 0.08 74 1009.9
20260906002834 26 18 0.0 0.0 0.03 0.08 0.08 74 1010.3
20260906002332 27 18 0.0 0.0 0.00 0.05 0.05 76 1010.4
20260906001832 27 18 0.0 0.0 0.00 0.05 0.05 75 1010.7
20260906001332 27 18 0.0 0.0 0.03 0.05 0.05 76 1010.8
20260906000833 27 18 0.0 0.0 0.05 0.05 0.05 77 1011.0
20260906000333 26 18 0.0 0.0 0.05 0.05 0.05 79 1011.2
20260905235830 26 18 0.0 0.0 0.05 0.05 0.05 81 1011.3
20260905235330 26 18 0.0 0.0 0.05 0.05 0.05 80 1011.3
20260905234830 26 18 0.0 0.0 0.05 0.05 0.05 81 1011.3
20260905234332 27 18 0.0 0.0 0.05 0.05 0.05 81 1011.2
20260905233830 27 18 0.0 0.0 0.05 0.05 0.05 80 1011.3
20260905233342 27 18 0.0 0.0 0.05 0.05 0.05 77 1011.2
20260905232829 29 18 0.0 0.0 0.05 0.05 0.05 73 1010.9
20260905232330 30 18 0.0 0.0 0.05 0.05 0.05 66 1011.0
20260905231828 33 18 0.0 0.0 0.05 0.05 0.05 58 1010.9
20260905231334 35 18 0.0 0.0 0.03 0.03 0.03 53 1010.8
20260905230828 35 18 0.0 0.0 0.00 0.00 0.00 47 1010.7
20260905225827 36 18 0.0 0.0 0.00 0.00 0.00 44 1010.6
20260905225336 36 18 0.0 0.0 0.00 0.00 0.00 44 1010.3
20260905225330 36 18 0.0 0.0 0.00 0.00 0.00 44 1010.3
20260905224832 36 18 0.0 0.0 0.00 0.00 0.00 44 1010.2
20260905224330 35 18 0.0 0.0 0.00 0.00 0.00 44 1010.3
20260905223832 36 18 0.0 0.0 0.00 0.00 0.00 43 1010.3
20260905223334 36 18 0.0 0.0 0.00 0.00 0.00 41 1010.4
20260905222828 36 18 0.0 0.0 0.00 0.00 0.00 42 1010.2
20260905222327 36 18 0.0 0.0 0.00 0.00 0.00 42 1010.1
20260905221827 36 18 0.0 0.0 0.00 0.00 0.00 43 1010.2
20260905221326 36 18 0.0 0.0 0.00 0.00 0.00 42 1010.2
20260905220828 36 18 0.0 0.0 0.00 0.00 0.00 42 1010.1
20260905215329 36 18 0.0 0.0 0.00 0.00 0.00 42 1010.3
20260905214827 35 18 0.0 0.0 0.00 0.00 0.00 43 1010.4
20260905214323 35 18 0.0 0.0 0.00 0.00 0.00 43 1010.3
20260905213824 35 18 0.0 0.0 0.00 0.00 0.00 43 1010.3
20260905213335 35 18 0.0 0.0 0.00 0.00 0.00 43 1010.4
20260905212824 36 18 0.0 0.0 0.00 0.00 0.00 42 1010.3
20260905212322 36 18 0.0 0.0 0.00 0.00 0.00 42 1010.3
20260905211824 36 18 0.0 0.0 0.00 0.00 0.00 40 1010.3
20260905211325 36 18 0.0 0.0 0.00 0.00 0.00 41 1010.4
20260905210830 36 18 0.0 0.0 0.00 0.00 0.00 41 1010.4
20260905210320 36 18 0.0 0.0 0.00 0.00 0.00 41 1010.5
20260905205824 36 18 0.0 0.0 0.00 0.00 0.00 40 1010.5
20260905204819 36 18 0.0 0.0 0.00 0.00 0.00 41 1010.5
20260905204322 36 18 0.0 0.0 0.00 0.00 0.00 41 1010.5
20260905203819 36 18 0.0 0.0 0.00 0.00 0.00 42 1010.5
20260905202818 36 18 0.0 0.0 0.00 0.00 0.00 42 1010.6
20260905201818 36 18 0.0 0.0 0.00 0.00 0.00 42 1010.8
20260905201317 36 18 0.0 0.0 0.00 0.00 0.00 41 1010.8
20260905200817 36 18 0.0 0.0 0.00 0.00 0.00 40 1010.9
20260905200322 36 18 0.0 0.0 0.00 0.00 0.00 42 1010.9
20260905195818 36 18 0.0 0.0 0.00 0.00 0.00 41 1011.0
20260905195316 35 18 0.0 0.0 0.00 0.00 0.00 43 1011.2
20260905194827 35 18 0.0 0.0 0.00 0.00 0.00 42 1011.3
20260905194323 35 18 0.0 0.0 0.00 0.00 0.00 42 1011.3
20260905194316 35 18 0.0 0.0 0.00 0.00 0.00 42 1011.3
20260905193816 35 18 0.0 0.0 0.00 0.00 0.00 42 1011.4
20260905193338 35 18 0.0 0.0 0.00 0.00 0.00 43 1011.5
20260905192815 35 18 0.0 0.0 0.00 0.00 0.00 43 1011.5
20260905192315 35 18 0.0 0.0 0.00 0.00 0.00 44 1011.5
20260905191818 35 18 0.0 0.0 0.00 0.00 0.00 45 1011.6
20260905191314 34 18 0.0 0.0 0.00 0.00 0.00 45 1011.6
20260905190814 34 18 0.0 0.0 0.00 0.00 0.00 45 1011.7
20260905190316 34 18 0.0 0.0 0.00 0.00 0.00 44 1011.8
20260905185817 34 18 0.0 0.0 0.00 0.00 0.00 46 1011.9
20260905185313 34 18 0.0 0.0 0.00 0.00 0.00 46 1011.9
20260905184812 33 18 0.0 0.0 0.00 0.00 0.00 47 1012.0
20260905184312 33 18 0.0 0.0 0.00 0.00 0.00 46 1012.1
20260905183816 34 18 0.0 0.0 0.00 0.00 0.00 46 1012.2
20260905183334 34 18 0.0 0.0 0.00 0.00 0.00 45 1012.1
20260905182813 34 18 0.0 0.0 0.00 0.00 0.00 45 1012.2
20260905182311 34 18 0.0 0.0 0.00 0.00 0.00 46 1012.3
20260905181811 33 18 0.0 0.0 0.00 0.00 0.00 47 1012.4
20260905181310 33 18 0.0 0.0 0.00 0.00 0.00 48 1012.5
20260905180810 33 18 0.0 0.0 0.00 0.00 0.00 48 1012.5
20260905180312 34 18 0.0 0.0 0.00 0.00 0.00 47 1012.5
20260905175811 33 18 0.0 0.0 0.00 0.00 0.00 48 1012.6
20260905175309 33 18 0.0 0.0 0.00 0.00 0.00 48 1012.7
20260905174309 32 18 0.0 0.0 0.00 0.00 0.00 51 1012.7
20260905173812 32 18 0.0 0.0 0.00 0.00 0.00 49 1012.7
20260905172810 32 18 0.0 0.0 0.00 0.00 0.00 51 1012.7
20260905172308 32 18 0.0 0.0 0.00 0.00 0.00 50 1012.8
20260905171807 32 18 0.0 0.0 0.00 0.00 0.00 49 1012.8
20260905171307 31 18 0.0 0.0 0.00 0.00 0.00 52 1012.9
20260905170813 31 18 0.0 0.0 0.00 0.00 0.00 51 1013.0
20260905170306 31 18 0.0 0.0 0.00 0.00 0.00 55 1013.1
20260905165810 31 18 0.0 0.0 0.00 0.00 0.00 54 1013.1
20260905165306 31 18 0.0 0.0 0.00 0.00 0.00 52 1013.2
20260905164806 31 18 0.0 0.0 0.00 0.00 0.00 53 1013.2
20260905164306 31 18 0.0 0.0 0.00 0.00 0.00 55 1013.2
20260905163805 30 18 0.0 0.0 0.00 0.00 0.00 54 1013.2
20260905163305 30 18 0.0 0.0 0.00 0.00 0.00 57 1013.0
20260905162804 30 18 0.0 0.0 0.00 0.00 0.00 56 1012.9
20260905162307 30 18 0.0 0.0 0.00 0.00 0.00 56 1012.9
20260905161815 30 18 0.0 0.0 0.00 0.00 0.00 57 1013.0
20260905161804 30 18 0.0 0.0 0.00 0.00 0.00 57 1013.0
20260905161304 29 18 0.0 0.0 0.00 0.00 0.00 59 1013.2
20260905160803 29 18 0.0 0.0 0.00 0.00 0.00 61 1013.3
20260905160303 29 18 0.0 0.0 0.00 0.00 0.00 62 1013.5
20260905155803 29 18 0.0 0.0 0.00 0.00 0.00 63 1013.6
20260905155306 29 18 0.0 0.0 0.00 0.00 0.00 62 1013.9
20260905154802 29 18 0.0 0.0 0.00 0.00 0.00 63 1013.8
20260905154302 28 18 0.0 0.0 0.00 0.00 0.00 65 1013.7
20260905153801 28 18 0.0 0.0 0.00 0.00 0.00 66 1013.7
20260905153301 28 18 0.0 0.0 0.00 0.00 0.00 65 1013.9
20260905152801 28 18 0.0 0.0 0.00 0.00 0.00 67 1013.9
20260905152301 27 18 0.0 0.0 0.00 0.00 0.00 68 1014.0
20260905151801 27 18 0.0 0.0 0.00 0.00 0.00 70 1014.0
20260905151304 27 18 0.0 0.0 0.00 0.00 0.00 69 1014.2
20260905150800 27 18 0.0 0.0 0.00 0.00 0.00 69 1014.2
20260905150259 27 18 0.0 0.0 0.00 0.00 0.00 71 1014.1
20260905145759 27 18 0.0 0.0 0.00 0.00 0.00 72 1014.0
20260905145259 26 18 0.0 0.0 0.00 0.00 0.00 71 1014.3
20260905144759 26 18 0.0 0.0 0.00 0.00 0.00 72 1014.4
20260905144258 26 18 0.0 0.0 0.00 0.00 0.00 75 1014.2
20260905143758 25 18 0.0 0.0 0.00 0.00 0.00 78 1014.2
20260905143258 25 18 0.0 0.0 0.00 0.00 0.00 79 1014.1
20260905142803 25 18 0.0 0.0 0.00 0.00 0.00 80 1014.2
20260905142259 25 18 0.0 0.0 0.00 0.00 0.00 79 1014.4
20260905141758 25 18 0.0 0.0 0.00 0.00 0.00 80 1014.3
20260905141257 25 18 0.0 0.0 0.00 0.00 0.00 78 1014.3
20260905140759 25 18 0.0 0.0 0.00 0.00 0.00 78 1014.5
20260905140256 25 18 0.0 0.0 0.00 0.00 0.00 77 1014.7
20260905135800 25 18 0.0 0.0 0.00 0.00 0.00 76 1015.1
20260905135258 26 18 0.0 0.0 0.00 0.00 0.00 76 1015.2
20260905134756 26 18 0.0 0.0 0.00 0.00 0.00 75 1015.1
20260905134256 26 18 0.0 0.0 0.00 0.00 0.00 76 1014.8
20260905133755 26 18 0.0 0.0 0.00 0.00 0.00 75 1014.7
20260905133301 26 18 0.0 0.0 0.00 0.00 0.00 75 1014.6
20260905132758 26 18 0.0 0.0 0.00 0.00 0.00 77 1014.5
20260905132255 25 18 0.0 0.0 0.00 0.00 0.00 79 1014.4
20260905131754 25 18 0.0 0.0 0.00 0.00 0.00 83 1014.4
20260905131253 25 18 0.0 0.0 0.00 0.00 0.00 82 1014.4
20260905130753 24 18 0.0 0.0 0.00 0.00 0.00 84 1014.4
20260905130307 24 18 0.0 0.0 0.00 0.00 0.00 85 1014.4
20260905125756 24 18 0.0 0.0 0.00 0.00 0.00 85 1014.4
20260905125252 24 18 0.0 0.0 0.00 0.00 0.00 85 1013.9
20260905124759 24 18 0.0 0.0 0.00 0.00 0.00 86 1014.0
20260905124254 24 18 0.0 0.0 0.00 0.00 0.00 85 1014.1
20260905123752 24 18 0.0 0.0 0.00 0.00 0.00 85 1014.2
20260905123256 24 18 0.0 0.0 0.00 0.00 0.00 85 1014.2
20260905122803 24 18 0.0 0.0 0.00 0.00 0.00 86 1014.3
20260905122250 24 18 0.0 0.0 0.00 0.00 0.00 86 1014.2
20260905121750 24 18 0.0 0.0 0.00 0.00 0.00 87 1014.1
20260905121339 24 18 0.0 0.0 0.00 0.00 0.00 88 1014.0
20260905121308 24 18 0.0 0.0 0.00 0.00 0.00 88 1014.0
20260905120756 23 18 0.0 0.0 0.00 0.00 0.00 89 1013.9
20260905120251 23 18 0.0 0.0 0.00 0.00 0.00 90 1013.7
20260905115753 23 18 0.0 0.0 0.00 0.00 0.00 91 1013.6
20260905114753 23 18 0.0 0.0 0.00 0.00 0.00 93 1013.7
20260905114250 23 18 0.0 0.0 0.00 0.00 0.00 93 1013.7
20260905113800 23 18 0.0 0.0 0.00 0.00 0.00 94 1013.6
20260905112806 23 18 0.0 0.0 0.00 0.00 0.00 93 1013.2
20260905112248 23 18 0.0 0.0 0.00 0.00 0.00 93 1013.0
20260905111756 23 18 0.0 0.0 0.00 0.00 0.00 92 1012.9
20260905111257 23 18 0.0 0.0 0.00 0.00 0.00 92 1012.8
20260905110749 23 18 0.0 0.0 0.00 0.00 0.00 92 1012.8
20260905110332 23 18 0.0 0.0 0.00 0.00 0.00 91 1012.8
20260905110251 23 18 0.0 0.0 0.00 0.00 0.00 91 1012.8
20260905104757 24 18 0.0 0.0 0.00 0.00 0.00 91 1012.6
20260905104253 24 18 0.0 0.0 0.00 0.00 0.00 91 1012.5
20260905103751 24 18 0.0 0.0 0.00 0.00 0.00 91 1012.3
20260905103304 24 18 0.0 0.0 0.00 0.00 0.00 91 1012.3
20260905102747 24 18 0.0 0.0 0.00 0.00 0.00 90 1012.3
20260905102300 24 18 0.0 0.0 0.00 0.00 0.00 91 1012.3
20260905100752 24 18 0.0 0.0 0.00 0.00 0.00 91 1012.5
20260905100343 24 18 0.0 0.0 0.00 0.00 0.00 92 1012.8
20260905100246 24 18 0.0 0.0 0.00 0.00 0.00 92 1012.8
20260905094242 23 18 0.0 0.0 0.00 0.00 0.00 91 1012.1
20260905093806 24 18 0.0 0.0 0.00 0.00 0.00 91 1012.1
20260905093351 24 18 0.0 0.0 0.00 0.00 0.00 90 1011.9
20260905093317 24 18 0.0 0.0 0.00 0.00 0.00 90 1011.9
20260905092757 24 18 0.0 0.0 0.00 0.00 0.00 89 1011.8
20260905092256 24 18 0.0 0.0 0.00 0.00 0.00 90 1011.7
20260905091742 24 18 0.0 0.0 0.00 0.00 0.00 90 1011.6
20260905091348 24 18 0.0 0.0 0.00 0.00 0.00 90 1011.5
20260905091316 24 18 0.0 0.0 0.00 0.00 0.00 90 1011.5
20260905090740 24 18 0.0 0.0 0.00 0.00 0.00 90 1011.5
20260905090253 24 18 0.0 0.0 0.00 0.00 0.00 89 1011.5
20260905085739 24 18 0.0 0.0 0.00 0.00 0.00 90 1011.6
20260905085245 24 18 0.0 0.0 0.00 0.00 0.00 90 1011.6
20260905084804 24 18 0.0 0.0 0.00 0.00 0.00 90 1011.6
20260905084251 25 18 0.0 0.0 0.00 0.00 0.00 88 1011.8
20260905083816 25 18 0.0 0.0 0.00 0.00 0.00 89 1011.7
20260905083743 25 18 0.0 0.0 0.00 0.00 0.00 89 1011.7
20260905082742 25 18 0.0 0.0 0.00 0.00 0.00 88 1011.8
20260905082254 25 18 0.0 0.0 0.00 0.00 0.00 88 1011.8
20260905081739 25 18 0.0 0.0 0.00 0.00 0.00 88 1011.9
20260905081250 25 18 0.0 0.0 0.00 0.00 0.00 88 1011.9
20260905080750 25 18 0.0 0.0 0.00 0.00 0.00 88 1011.8
20260905080247 25 18 0.0 0.0 0.00 0.00 0.00 88 1011.7
20260905075735 25 18 0.0 0.0 0.00 0.00 0.00 89 1011.9
20260905075247 25 18 0.0 0.0 0.00 0.00 0.00 89 1011.9
20260905074739 25 18 0.0 0.0 0.00 0.00 0.00 88 1011.9
20260905072243 25 18 0.0 0.0 0.00 0.00 0.00 88 1011.9
20260905071738 25 18 0.0 0.0 0.00 0.00 0.00 89 1012.1
20260905070744 25 18 0.0 0.0 0.00 0.00 0.00 89 1012.2
20260905070237 24 18 0.0 0.0 0.00 0.00 0.00 89 1012.3
20260905065748 24 18 0.0 0.0 0.00 0.00 0.00 90 1012.4
20260905065739 24 18 0.0 0.0 0.00 0.00 0.00 90 1012.4
20260905065232 24 18 0.0 0.0 0.00 0.00 0.00 90 1012.5
20260905064803 24 18 0.0 0.0 0.00 0.00 0.00 90 1012.5
20260905064732 24 18 0.0 0.0 0.00 0.00 0.00 90 1012.5
20260905062740 25 18 0.0 0.0 0.00 0.00 0.00 87 1012.6
20260905061241 25 18 0.0 0.0 0.00 0.00 0.00 86 1012.8
20260905060742 25 18 0.0 0.0 0.00 0.00 0.00 86 1012.9
20260905060233 25 18 0.0 0.0 0.00 0.00 0.00 86 1013.0
20260905055730 26 18 0.0 0.0 0.00 0.00 0.00 85 1013.0
20260905055231 26 18 0.0 0.0 0.00 0.00 0.00 85 1013.1
20260905054743 26 18 0.0 0.0 0.00 0.00 0.00 86 1013.1
20260905054234 26 18 0.0 0.0 0.00 0.00 0.00 86 1013.2
20260905053728 26 18 0.0 0.0 0.00 0.00 0.00 86 1013.2
20260905053300 26 18 0.0 0.0 0.00 0.00 0.00 85 1013.2
20260905053229 26 18 0.0 0.0 0.00 0.00 0.00 85 1013.2
20260905052239 26 18 0.0 0.0 0.00 0.00 0.00 85 1013.2
20260905051734 26 18 0.0 0.0 0.00 0.00 0.00 85 1013.2
20260905051228 26 18 0.0 0.0 0.00 0.00 0.00 84 1013.3
20260905050752 26 18 0.0 0.0 0.00 0.00 0.00 84 1013.3
20260905050303 26 18 0.0 0.0 0.00 0.00 0.00 83 1013.4
20260905050228 26 18 0.0 0.0 0.00 0.00 0.00 83 1013.4
20260905045724 26 18 0.0 0.0 0.00 0.00 0.00 83 1013.4
20260905045224 26 18 0.0 0.0 0.00 0.00 0.00 83 1013.3
20260905044726 26 18 0.0 0.0 0.00 0.00 0.00 83 1013.4
20260905044242 26 18 0.0 0.0 0.00 0.00 0.00 84 1013.5
20260905043730 26 18 0.0 0.0 0.00 0.00 0.00 84 1013.4
20260905043232 26 18 0.0 0.0 0.00 0.00 0.00 84 1013.3
20260905042728 26 18 0.0 0.0 0.00 0.00 0.00 84 1013.3
20260905042222 26 18 0.0 0.0 0.00 0.00 0.00 84 1013.3
20260905041726 26 18 0.0 0.0 0.00 0.00 0.00 83 1013.3
20260905041222 26 18 0.0 0.0 0.00 0.00 0.00 82 1013.3
20260905040724 26 18 0.0 0.0 0.00 0.00 0.00 81 1013.3
20260905040222 26 18 0.0 0.0 0.00 0.00 0.00 81 1013.2
20260905035728 26 18 0.0 0.0 0.00 0.00 0.00 81 1013.2
20260905035221 26 18 0.0 0.0 0.00 0.00 0.00 81 1013.3
20260905034724 26 18 0.0 0.0 0.00 0.00 0.00 81 1013.3
20260905034228 27 18 0.0 0.0 0.00 0.00 0.00 81 1013.4
20260905034220 27 18 0.0 0.0 0.00 0.00 0.00 81 1013.4
20260905033727 27 18 0.0 0.0 0.00 0.00 0.00 80 1013.4
20260905033220 26 18 0.0 0.0 0.00 0.00 0.00 80 1013.4
20260905032722 26 18 0.0 0.0 0.00 0.00 0.00 81 1013.4
20260905032219 26 18 0.0 0.0 0.00 0.00 0.00 81 1013.4
20260905031719 26 18 0.0 0.0 0.00 0.00 0.00 81 1013.4
20260905031218 26 18 0.0 0.0 0.00 0.00 0.00 81 1013.5
20260905030729 27 18 0.0 0.0 0.00 0.00 0.00 81 1013.5
20260905030218 27 18 0.0 0.0 0.00 0.00 0.00 81 1013.4
20260905025721 27 18 0.0 0.0 0.00 0.00 0.00 80 1013.5
20260905024722 27 18 0.0 0.0 0.00 0.00 0.00 80 1013.3
20260905024217 27 18 0.0 0.0 0.00 0.00 0.00 77 1013.2
20260905023724 27 18 0.0 0.0 0.00 0.00 0.00 77 1013.3
20260905023219 27 18 0.0 0.0 0.00 0.00 0.00 76 1013.3
20260905022216 28 18 0.0 0.0 0.00 0.00 0.00 75 1013.3
20260905021717 27 18 0.0 0.0 0.00 0.00 0.00 75 1013.3
20260905021216 27 18 0.0 0.0 0.00 0.00 0.00 74 1013.3
20260905020715 27 18 0.0 0.0 0.00 0.00 0.00 74 1013.2
20260905020218 28 18 0.0 0.0 0.00 0.00 0.00 75 1013.3
20260905015716 28 18 0.0 0.0 0.00 0.00 0.00 76 1013.2
20260905015214 28 18 0.0 0.0 0.00 0.00 0.00 75 1013.2
20260905014714 28 18 0.0 0.0 0.00 0.00 0.00 73 1013.2
20260905014218 28 18 0.0 0.0 0.00 0.00 0.00 73 1013.1
20260905013720 28 18 0.0 0.0 0.00 0.00 0.00 74 1013.1
20260905013214 28 18 0.0 0.0 0.00 0.00 0.00 76 1013.1
20260905012717 29 18 0.0 0.0 0.00 0.00 0.00 71 1013.1
20260905012213 29 18 0.0 0.0 0.00 0.00 0.00 70 1013.1
20260905011713 30 18 0.0 0.0 0.00 0.00 0.00 69 1013.1
20260905011212 30 18 0.0 0.0 0.00 0.00 0.00 68 1013.0
20260905010715 30 18 0.0 0.0 0.00 0.00 0.00 67 1012.9
20260905010213 30 18 0.0 0.0 0.00 0.00 0.00 66 1012.8
20260905005722 30 18 0.0 0.0 0.00 0.00 0.00 65 1012.8
20260905005214 30 18 0.0 0.0 0.00 0.00 0.00 64 1012.7
20260905004711 31 18 0.0 0.0 0.00 0.00 0.00 63 1012.6
20260905004211 31 18 0.0 0.0 0.00 0.00 0.00 62 1012.5